[[{"header":{"parameterUnit":"m.s-1","parameterCategory":1,"la1":30.2991,"la2":30.254,"lo1":-89.0895,"lo2":-89.0444,"dy":0.0017,"dx":0.0017,"nx":28,"ny":28,"refTime":"2025-08-02T09:00:00:Z","depth":0,"parameterNumber":2,"parameterNumberName":"U-component_of_WINDS"},"data":[0,0,0,0,0,0,0,0,0,0,0,0,0,0,0,0,0,0,0,0,0,0,0,0,0,0,0,0,0,0,0,0,0,0,0,0,0,0,0,0,0,0,0,0,0,0,0,0,0,0,0,0,0,0,0,0,0,0,-0.4806,-0.4806,0,-0.4778,-0.4777,-0.4777,-0.4749,-0.4749,-0.4749,-0.4748,-0.4719,-0.4718,-0.4718,0,0,0,0,0,0,0,0,0,0,0,0,0,-0.4835,-0.4835,-0.4806,-0.4806,-0.4805,-0.4778,-0.4777,-0.4777,-0.4749,-0.4749,-0.4749,-0.4748,-0.4719,-0.4718,-0.4718,0,0,0,0,0,0,0,0,0,0,0,0,0,-0.4816,-0.4835,-0.4806,-0.4788,-0.4786,-0.4778,-0.4777,-0.4777,-0.475,-0.4749,-0.4748,-0.4748,-0.4719,-0.4718,-0.4718,-0.4724,0,0,-0.4716,-0.4715,0,0,0,0,0,0,0,0,-0.4818,-0.4815,-0.4791,-0.4789,-0.4787,-0.4767,-0.4777,-0.4759,-0.475,-0.4764,-0.4748,-0.4748,-0.4735,-0.4733,-0.4729,-0.4723,-0.4722,-0.4716,-0.4715,-0.4715,-0.4715,0,0,0,0,0,0,0,-0.4819,-0.4816,-0.4795,-0.4791,-0.4788,-0.4781,-0.4778,-0.4773,-0.4753,-0.4762,-0.476,-0.4757,-0.4734,-0.473,-0.4728,-0.4721,-0.4716,-0.4715,-0.4715,-0.4714,-0.472,-0.472,0,0,0,0,0,0,-0.4823,-0.4818,-0.4796,-0.4794,-0.4801,-0.4781,-0.4778,-0.4774,-0.4753,-0.4749,-0.4758,-0.4756,-0.4731,-0.4729,-0.4727,-0.4733,-0.4715,-0.4714,-0.4714,-0.4719,-0.472,-0.472,0,0,0,0,0,0,-0.4824,-0.4821,-0.4797,-0.4805,-0.4802,-0.4781,-0.4777,-0.4773,-0.4769,-0.4749,-0.4745,-0.4757,-0.4731,-0.4728,-0.4725,-0.4732,-0.4714,-0.4713,-0.4718,-0.4719,-0.472,-0.4746,0,0,0,0,0,0,-0.4825,-0.4822,-0.4824,-0.4806,-0.4801,-0.4796,-0.4778,-0.4773,-0.4768,-0.4766,-0.4748,-0.4744,-0.473,-0.4726,-0.4725,-0.4731,-0.4713,-0.4718,-0.4719,-0.472,-0.4744,-0.4748,-0.475,0,0,0,0,0,-0.4826,-0.4833,-0.4824,-0.4822,-0.4804,-0.4796,-0.4794,-0.4777,-0.4769,-0.4771,-0.4758,-0.4745,-0.4732,-0.4726,-0.4724,-0.473,-0.4717,-0.4718,-0.472,-0.4743,-0.4747,-0.475,0,0,0,0,0,0,-0.4852,-0.483,-0.4821,-0.4821,-0.4811,-0.4792,-0.4794,-0.4782,-0.4774,-0.4772,-0.4752,-0.4748,-0.4748,-0.4738,-0.4733,-0.4735,-0.4722,-0.4723,-0.4741,-0.4745,-0.4748,-0.475,-0.4712,0,0,0,0,0,-0.4858,-0.4854,-0.4835,-0.4837,-0.4832,-0.4814,-0.481,-0.4799,-0.4787,-0.4782,-0.4769,-0.4758,-0.4752,-0.4748,-0.474,-0.4743,-0.4739,-0.4746,-0.4749,-0.4751,-0.4752,-0.4753,-0.4756,-0.4724,-0.4724,-0.4724,0,0,-0.487,-0.4857,-0.4856,-0.4842,-0.4833,-0.4829,-0.4811,-0.4807,-0.4804,-0.4782,-0.4779,-0.4769,-0.4755,-0.4755,-0.4755,-0.4748,-0.476,-0.4753,-0.4755,-0.4755,-0.4755,-0.4758,-0.476,-0.4725,-0.4725,-0.4725,0,0,-0.489,-0.488,-0.4881,-0.4872,-0.4858,-0.4846,-0.4847,-0.4829,-0.4822,-0.4818,-0.4802,-0.4798,-0.4786,-0.4777,-0.4772,-0.4789,-0.4776,-0.4787,-0.4802,-0.4803,-0.4805,-0.4807,-0.4813,-0.4816,-0.4788,-0.4788,-0.4788,0,-0.4907,-0.49,-0.4883,-0.4881,-0.4875,-0.4855,-0.4856,-0.4848,-0.4833,-0.4829,-0.4822,-0.4807,-0.4797,-0.4795,-0.4799,-0.4795,-0.4794,-0.4789,-0.4806,-0.4808,-0.481,-0.4815,-0.4818,-0.4789,-0.4789,-0.4789,-0.4789,0,-0.4921,-0.4917,-0.492,-0.4906,-0.49,-0.4899,-0.4882,-0.4879,-0.4868,-0.4856,-0.4853,-0.484,-0.483,-0.4828,-0.4817,-0.4825,-0.4821,-0.481,-0.4797,-0.4815,-0.4819,-0.4821,-0.4791,-0.4791,-0.479,-0.479,0,0,-0.4957,-0.4933,-0.4934,-0.4928,-0.4911,-0.4907,-0.4906,-0.4896,-0.4894,-0.4884,-0.4882,-0.4873,-0.4863,-0.4856,-0.4844,-0.4845,-0.486,-0.4834,-0.4834,-0.4839,-0.4866,-0.4874,-0.4877,-0.4851,-0.4852,-0.4852,-0.4868,0,-0.4973,-0.497,-0.4954,-0.4955,-0.4951,-0.4932,-0.4931,-0.492,-0.491,-0.4905,-0.4893,-0.4887,-0.4874,-0.487,-0.487,-0.4858,-0.4865,-0.4856,-0.4849,-0.4849,-0.4853,-0.4879,-0.4888,-0.4903,-0.4869,-0.487,-0.487,0,-0.4992,-0.4984,-0.4984,-0.4968,-0.4966,-0.4965,-0.4955,-0.495,-0.4938,-0.493,-0.4923,-0.491,-0.4907,-0.4895,-0.4891,-0.4885,-0.4881,-0.4875,-0.4875,-0.4873,-0.486,-0.4878,-0.4908,-0.491,-0.4873,-0.4872,-0.4872,0,-0.5018,-0.5007,-0.5005,-0.5,-0.4981,-0.4981,-0.4973,-0.4961,-0.4956,-0.4947,-0.4944,-0.4935,-0.493,-0.4923,-0.4907,-0.49,-0.4905,-0.4891,-0.4898,-0.4898,-0.4899,-0.49,-0.4928,-0.4898,-0.4898,-0.4897,-0.4897,0,-0.5038,-0.5039,-0.5017,-0.5016,-0.5016,-0.4999,-0.5,-0.499,-0.4979,-0.4976,-0.4959,-0.4956,-0.4936,-0.4931,-0.4919,-0.4917,-0.4915,-0.4909,-0.4905,-0.491,-0.4911,-0.4907,-0.4905,-0.4898,-0.4898,-0.4898,-0.4898,0,-0.5066,-0.5051,-0.5049,-0.5031,-0.5027,-0.5028,-0.5013,-0.5011,-0.5,-0.4996,-0.4994,-0.4976,-0.497,-0.4954,-0.4943,-0.4935,-0.4936,-0.493,-0.494,-0.4938,-0.4945,-0.4945,-0.4972,-0.4975,-0.4943,-0.4943,-0.4944,0,-0.508,-0.508,-0.5063,-0.506,-0.5053,-0.5048,-0.5043,-0.5026,-0.5021,-0.5008,-0.5008,-0.5,-0.4993,-0.4983,-0.4969,-0.496,-0.4954,-0.4964,-0.4952,-0.4957,-0.4954,-0.4954,-0.4954,-0.4967,-0.4967,-0.4967,-0.4968,0,-0.5106,-0.5099,-0.5092,-0.5084,-0.5078,-0.5071,-0.5062,-0.506,-0.5041,-0.5037,-0.503,-0.5024,-0.5013,-0.5006,-0.4995,-0.4987,-0.4974,-0.4972,-0.4973,-0.4977,-0.4983,-0.498,-0.4947,-0.4971,-0.4971,-0.497,-0.497,-0.497,-0.5127,-0.5127,-0.5114,-0.5108,-0.51,-0.5092,-0.509,-0.5078,-0.5072,-0.5062,-0.5053,-0.5047,-0.5035,-0.5019,-0.5012,-0.5007,-0.5,-0.5002,-0.5002,-0.5003,-0.5005,-0.4984,-0.5005,-0.5005,-0.5004,-0.5004,-0.5004,0,-0.5152,-0.5143,-0.5138,-0.5126,-0.5121,-0.511,-0.51,-0.5097,-0.5092,-0.5082,-0.5075,-0.5067,-0.506,-0.5045,-0.5036,-0.5035,-0.5029,-0.5033,-0.5033,-0.5031,-0.5011,-0.5011,-0.5039,-0.5039,-0.5039,-0.5039,-0.5039,-0.5038,-0.5164,-0.5163,-0.5154,-0.5148,-0.5139,-0.5134,-0.5129,-0.5122,-0.5114,-0.5106,-0.51,-0.509,-0.5079,-0.5069,-0.5061,-0.5057,-0.5055,-0.5061,-0.5055,-0.5036,-0.5033,-0.503,-0.503,-0.5061,-0.5061,-0.5076,-0.5076,-0.5076]},{"header":{"parameterUnit":"m.s-1","parameterCategory":1,"la1":30.2991,"la2":30.254,"lo1":-89.0895,"lo2":-89.0444,"dy":0.0017,"dx":0.0017,"nx":28,"ny":28,"refTime":"2025-08-02T09:00:00:Z","depth":0,"parameterNumber":3,"parameterNumberName":"V-component_of_WINDS"},"data":[0,0,0,0,0,0,0,0,0,0,0,0,0,0,0,0,0,0,0,0,0,0,0,0,0,0,0,0,0,0,0,0,0,0,0,0,0,0,0,0,0,0,0,0,0,0,0,0,0,0,0,0,0,0,0,0,0,0,0.0024,0.0024,0,0.0027,0.0027,0.0027,0.0044,0.0045,0.0045,0.0046,0.0047,0.0047,0.0046,0,0,0,0,0,0,0,0,0,0,0,0,0,0.0034,0.0034,0.0024,0.0024,0.0024,0.0027,0.0027,0.0027,0.0044,0.0045,0.0045,0.0046,0.0047,0.0047,0.0046,0,0,0,0,0,0,0,0,0,0,0,0,0,0.0033,0.0034,0.0024,0.0033,0.0034,0.0027,0.0027,0.0027,0.0044,0.0045,0.0046,0.0046,0.0047,0.0047,0.0046,0.0029,0,0,0.0044,0.0044,0,0,0,0,0,0,0,0,0.0033,0.0032,0.0032,0.0033,0.0034,0.0036,0.0031,0.0028,0.0044,0.004,0.0046,0.0047,0.0043,0.0043,0.0042,0.0029,0.003,0.0044,0.0044,0.0044,0.0044,0,0,0,0,0,0,0,0.0033,0.0032,0.0025,0.0032,0.0033,0.0037,0.0038,0.003,0.0038,0.0041,0.0042,0.0042,0.0043,0.0042,0.0042,0.003,0.0044,0.0044,0.0044,0.0043,0.0004,0.0003,0,0,0,0,0,0,0.0032,0.0032,0.0025,0.0025,0.0035,0.0036,0.0037,0.0035,0.0038,0.0039,0.0042,0.0043,0.0043,0.0042,0.0042,0.0022,0.0044,0.0043,0.0043,0.0004,0.0003,0.0003,0,0,0,0,0,0,0.0032,0.0031,0.0025,0.0029,0.0029,0.0036,0.0033,0.0034,0.0033,0.0039,0.004,0.0039,0.0043,0.0043,0.0032,0.0023,0.0043,0.0043,0.0005,0.0004,0.0003,-0.0017,0,0,0,0,0,0,0.0032,0.0031,0.0025,0.0029,0.0028,0.0016,0.0032,0.0034,0.0032,0.0034,0.0036,0.0037,0.0044,0.0033,0.0032,0.0022,0.0042,0.0006,0.0005,0.0003,-0.0015,-0.0019,-0.0021,0,0,0,0,0,0.0032,0.0019,0.0024,0.0023,0.0021,0.0015,0.0015,0.0023,0.0031,0.0025,0.0029,0.0037,0.0024,0.0032,0.0031,0.0021,0.0007,0.0005,0.0003,-0.0014,-0.0018,-0.0021,0,0,0,0,0,0,0.0013,0.002,0.0026,0.0013,0.0014,0.0018,0.0011,0.0018,0.0016,0.0018,0.0027,0.0027,0.0016,0.0017,0.0026,0.0004,0.0017,0.0015,0.0004,0.0,-0.0003,-0.0003,0.0042,0,0,0,0,0,0.0008,0.0003,0.0008,-0.0003,-0.0003,0.0004,0.0001,0.0007,0.0008,0.0008,0.0011,0.0011,0.0006,0.0003,-0.0,-0.0015,-0.0015,-0.0023,-0.0026,-0.0028,-0.003,-0.0038,-0.0042,-0.0003,-0.0003,-0.0003,0,0,-0.0004,-0.0001,-0.0005,-0.0007,-0.0006,-0.0012,0.0004,-0.0003,-0.0007,0.0007,-0.0003,-0.0001,-0.0,-0.0013,-0.0018,-0.0012,-0.0041,-0.003,-0.0032,-0.0033,-0.004,-0.0044,-0.0047,-0.0004,-0.0004,-0.0003,0,0,-0.0029,-0.0027,-0.0036,-0.0036,-0.0034,-0.003,-0.0032,-0.0028,-0.0026,-0.0036,-0.0025,-0.003,-0.0038,-0.0038,-0.0039,-0.0064,-0.0056,-0.0065,-0.0081,-0.0089,-0.0092,-0.0094,-0.0103,-0.0107,-0.0067,-0.0067,-0.0067,0,-0.0044,-0.0051,-0.0042,-0.005,-0.0051,-0.0038,-0.0048,-0.0048,-0.0048,-0.0049,-0.0042,-0.0051,-0.005,-0.0063,-0.0069,-0.007,-0.0072,-0.0065,-0.0092,-0.0094,-0.0097,-0.0105,-0.0109,-0.0068,-0.0068,-0.0068,-0.0068,0,-0.007,-0.0075,-0.0083,-0.0083,-0.0085,-0.0094,-0.0087,-0.009,-0.0084,-0.008,-0.009,-0.0088,-0.0091,-0.0094,-0.0088,-0.0106,-0.0102,-0.0093,-0.0081,-0.0102,-0.011,-0.0113,-0.007,-0.0069,-0.0069,-0.0069,0,0,-0.0106,-0.0101,-0.0104,-0.0104,-0.0102,-0.0106,-0.0114,-0.0117,-0.012,-0.0121,-0.0127,-0.0134,-0.0126,-0.0127,-0.0122,-0.0129,-0.0149,-0.0119,-0.0119,-0.0125,-0.0168,-0.0175,-0.0179,-0.0143,-0.0144,-0.0144,-0.0168,0,-0.013,-0.0143,-0.0135,-0.015,-0.0155,-0.0143,-0.015,-0.015,-0.0146,-0.015,-0.0147,-0.0152,-0.0141,-0.0142,-0.0148,-0.0145,-0.0157,-0.0143,-0.015,-0.015,-0.015,-0.0183,-0.0189,-0.0212,-0.0171,-0.0172,-0.0172,0,-0.0159,-0.0161,-0.0176,-0.0172,-0.0174,-0.0181,-0.0182,-0.0186,-0.0186,-0.0183,-0.0184,-0.0177,-0.0185,-0.0172,-0.0184,-0.0174,-0.0176,-0.0175,-0.0176,-0.0176,-0.0163,-0.0184,-0.0219,-0.0223,-0.0177,-0.0176,-0.0176,0,-0.0185,-0.019,-0.02,-0.02,-0.0197,-0.0201,-0.02,-0.0199,-0.0201,-0.0203,-0.0204,-0.0207,-0.0209,-0.0211,-0.0205,-0.0196,-0.0217,-0.0204,-0.0215,-0.0215,-0.022,-0.022,-0.0257,-0.0222,-0.0222,-0.0222,-0.0221,0,-0.0212,-0.0222,-0.0211,-0.0217,-0.0228,-0.0219,-0.023,-0.0227,-0.0226,-0.0232,-0.0222,-0.0227,-0.0218,-0.0223,-0.0218,-0.0228,-0.0229,-0.0227,-0.0226,-0.0228,-0.0229,-0.023,-0.0228,-0.0222,-0.0222,-0.0222,-0.0222,0,-0.0242,-0.0236,-0.0245,-0.0241,-0.024,-0.0248,-0.0245,-0.025,-0.0246,-0.0253,-0.0255,-0.0248,-0.0253,-0.0247,-0.0252,-0.0249,-0.0262,-0.0259,-0.0263,-0.0262,-0.0273,-0.0272,-0.0312,-0.0317,-0.0279,-0.0279,-0.0279,0,-0.026,-0.0267,-0.0263,-0.0266,-0.0266,-0.027,-0.0272,-0.0264,-0.0267,-0.0266,-0.0272,-0.0276,-0.0279,-0.0288,-0.0284,-0.0288,-0.0284,-0.0298,-0.0284,-0.0287,-0.0284,-0.0284,-0.0285,-0.03,-0.0301,-0.0301,-0.0301,0,-0.0293,-0.0289,-0.0292,-0.0294,-0.0297,-0.0298,-0.0299,-0.0302,-0.0293,-0.0297,-0.0302,-0.0304,-0.0309,-0.0313,-0.0315,-0.0314,-0.0307,-0.0306,-0.0308,-0.0311,-0.0313,-0.0312,-0.027,-0.0305,-0.0304,-0.0304,-0.0304,-0.0304,-0.0317,-0.0323,-0.0321,-0.0325,-0.0325,-0.0326,-0.0331,-0.0327,-0.0331,-0.0334,-0.0329,-0.0335,-0.0334,-0.0337,-0.0337,-0.0342,-0.0336,-0.034,-0.0341,-0.0342,-0.0344,-0.0312,-0.0342,-0.0342,-0.0342,-0.0342,-0.0342,0,-0.035,-0.0348,-0.0352,-0.0353,-0.0356,-0.0348,-0.0348,-0.0351,-0.0357,-0.0357,-0.0359,-0.0365,-0.0369,-0.0366,-0.0369,-0.0374,-0.0371,-0.0375,-0.0375,-0.0375,-0.0349,-0.0346,-0.0378,-0.0378,-0.0378,-0.0378,-0.0378,-0.0378,-0.0367,-0.0376,-0.0372,-0.0382,-0.038,-0.0385,-0.0386,-0.0387,-0.0387,-0.0394,-0.0397,-0.0395,-0.0393,-0.0396,-0.04,-0.0399,-0.0401,-0.0407,-0.0405,-0.038,-0.0377,-0.0373,-0.0371,-0.0407,-0.0407,-0.043,-0.043,-0.043]}]]